Location: Palmerston North
(40.3500°S, 175.6170°E)
Time: 09:39:30
(UTC+13:00)

Meteor 1-25 Rocket - Pass Details

Date: 24 January 2019
Orbit: 836 x 892 km, 81.2° (Epoch: 19 February)

Event Time Altitude Azimuth Distance (km) Brightness Sun altitude
Rises 23:15:56 0° 191° (S) 3,518 8.5 -22.8°
Reaches altitude 10° 23:18:23 10° 191° (S) 2,578 7.6 -23.1°
Maximum altitude 23:24:17 83° 277° (W) 910 4.3 -23.7°
Enters shadow 23:25:56 50° 359° (N) 1,131 4.5 -23.8°
